EW1090 Weather Reports


Display with metric or nautical units.
time (UTC)temp
F
wind
direction
speed
MPH
gust
MPH
rain 1hr
in
rain 24hr
in
rain mn
in
humidity
%
barometer
mb
20260901185820 88 142 1.0 7.0 0.00 0.04 0.02 65 1016.6
20260901185316 90 230 2.0 7.0 0.00 0.04 0.02 62 1016.5
20260901184832 92 190 3.0 9.0 0.00 0.04 0.02 61 1016.5
20260901184328 92 114 3.0 9.0 0.00 0.04 0.02 62 1016.2
20260901183825 92 108 3.0 9.0 0.00 0.04 0.02 63 1016.2
20260901183320 91 94 3.0 7.0 0.00 0.04 0.02 63 1016.0
20260901182817 91 97 1.0 9.0 0.00 0.04 0.02 64 1016.2
20260901182330 91 104 5.0 10.0 0.00 0.04 0.02 63 1016.2
20260901181846 91 124 4.0 10.0 0.00 0.04 0.02 63 1016.2
20260901181320 92 69 3.0 13.0 0.00 0.04 0.02 62 1016.3
20260901180835 92 61 4.0 12.0 0.00 0.04 0.02 63 1016.4
20260901180330 93 67 4.0 10.0 0.00 0.04 0.02 61 1016.4
20260901175846 93 117 4.0 10.0 0.00 0.04 0.02 61 1016.4
20260901175320 93 108 4.0 8.0 0.00 0.04 0.02 61 1016.5
20260901174817 93 184 4.0 8.0 0.00 0.04 0.02 61 1016.5
20260901174312 93 29 2.0 10.0 0.00 0.04 0.02 61 1016.5
20260901173827 93 97 3.0 11.0 0.00 0.04 0.02 61 1016.5
20260901173322 92 142 2.0 11.0 0.00 0.04 0.02 61 1016.4
20260901172818 92 169 2.0 8.0 0.00 0.04 0.02 63 1016.5
20260901172314 91 28 2.0 9.0 0.00 0.04 0.02 65 1016.6
20260901171810 92 95 1.0 9.0 0.00 0.05 0.02 64 1016.7
20260901171350 92 74 3.0 10.0 0.00 0.05 0.02 62 1016.7
20260901170843 92 72 3.0 15.0 0.00 0.05 0.02 63 1016.7
20260901170317 92 49 3.0 15.0 0.00 0.05 0.02 62 1016.7
20260901165813 93 85 4.0 9.0 0.00 0.05 0.02 61 1016.7
20260901165310 93 47 2.0 10.0 0.00 0.05 0.02 55 1016.8
20260901164808 93 159 2.0 10.0 0.00 0.05 0.02 56 1016.9
20260901164324 93 121 2.0 5.0 0.00 0.05 0.02 57 1016.9
20260901163841 93 151 1.0 9.0 0.00 0.05 0.02 58 1017.0
20260901163309 93 129 3.0 9.0 0.00 0.05 0.02 58 1017.1
20260901162823 92 138 2.0 10.0 0.00 0.05 0.02 59 1017.2
20260901162308 92 166 1.0 10.0 0.00 0.05 0.02 60 1017.1
20260901161809 92 69 1.0 10.0 0.00 0.05 0.02 61 1017.1
20260901161336 92 93 3.0 10.0 0.00 0.05 0.02 60 1017.1
20260901160816 92 96 2.0 6.0 0.00 0.05 0.02 60 1017.0
20260901160329 92 100 3.0 6.0 0.00 0.05 0.02 58 1016.9
20260901155806 93 170 1.0 5.0 0.00 0.05 0.02 60 1016.8
20260901155307 93 119 1.0 4.0 0.00 0.05 0.02 60 1016.8
20260901154808 92 110 1.0 5.0 0.00 0.05 0.02 61 1016.8
20260901154336 91 254 1.0 6.0 0.00 0.05 0.02 63 1016.8
20260901153815 91 46 3.0 6.0 0.00 0.05 0.02 63 1016.9
20260901153323 91 169 0.0 6.0 0.00 0.05 0.02 64 1016.9
20260901152851 90 72 2.0 7.0 0.00 0.05 0.02 64 1016.9
20260901152312 90 110 1.0 7.0 0.00 0.05 0.02 63 1016.8
20260901151813 90 69 0.0 3.0 0.00 0.05 0.02 66 1016.8
20260901151339 90 100 0.0 5.0 0.00 0.05 0.02 66 1016.8
20260901150819 90 168 2.0 5.0 0.00 0.05 0.02 66 1016.9
20260901150320 90 82 2.0 9.0 0.00 0.05 0.02 66 1016.9
20260901145828 89 9 3.0 9.0 0.00 0.05 0.02 67 1016.9
20260901145311 89 55 0.0 0.0 0.00 0.05 0.02 69 1016.8
20260901144819 88 68 327.0 327.0 0.00 0.00 0.02 70 1016.7
20260901144308 88 170 0.0 6.0 0.00 0.05 0.02 70 1016.7
20260901143817 88 142 1.0 7.0 0.00 0.05 0.02 69 1016.7
20260901143346 88 113 1.0 7.0 0.00 0.05 0.02 70 1016.8
20260901142818 88 86 0.0 5.0 0.00 0.05 0.02 68 1016.8
20260901142327 89 186 1.0 5.0 0.00 0.05 0.02 68 1016.9
20260901141815 89 151 1.0 4.0 0.00 0.05 0.02 68 1016.9
20260901141323 88 155 0.0 4.0 0.01 0.05 0.02 69 1016.9
20260901140852 88 86 0.0 4.0 0.01 0.05 0.02 70 1016.8
20260901140319 88 40 1.0 7.0 0.01 0.05 0.02 70 1016.8
20260901135827 88 76 1.0 7.0 0.01 0.05 0.02 71 1016.8
20260901135316 88 132 0.0 2.0 0.01 0.05 0.02 71 1016.9
20260901134825 87 46 0.0 3.0 0.01 0.05 0.02 72 1016.8
20260901134313 87 166 0.0 5.0 0.01 0.05 0.02 73 1016.8
20260901133821 87 119 2.0 5.0 0.01 0.05 0.02 72 1016.8
20260901133314 87 172 1.0 7.0 0.01 0.05 0.02 73 1016.8
20260901132823 86 88 0.0 4.0 0.01 0.05 0.02 73 1016.8
20260901132311 86 50 0.0 2.0 0.01 0.05 0.02 74 1016.8
20260901131819 86 90 0.0 7.0 0.01 0.05 0.02 75 1016.8
20260901131349 85 117 1.0 7.0 0.00 0.04 0.01 75 1016.8
20260901130816 85 178 1.0 3.0 0.00 0.04 0.01 76 1016.8
20260901130325 85 148 1.0 5.0 0.00 0.04 0.01 76 1016.8
20260901125813 85 115 2.0 5.0 0.00 0.04 0.01 76 1016.7
20260901125322 85 113 1.0 3.0 0.00 0.04 0.01 77 1016.6
20260901124814 84 95 0.0 3.0 0.00 0.04 0.01 77 1016.5
20260901124343 84 109 0.0 4.0 0.00 0.04 0.01 78 1016.5
20260901123810 83 144 1.0 3.0 0.00 0.04 0.01 79 1016.4
20260901123318 83 167 0.0 3.0 0.00 0.04 0.01 79 1016.4
20260901122827 83 138 1.0 3.0 0.00 0.04 0.01 80 1016.3
20260901122316 82 154 0.0 2.0 0.00 0.04 0.01 81 1016.3
20260901121825 82 154 0.0 1.0 0.00 0.05 0.01 81 1016.1
20260901121314 82 154 0.0 3.0 0.00 0.05 0.01 82 1016.0
20260901120822 81 154 0.0 3.0 0.00 0.05 0.01 82 1016.0
20260901120310 81 154 0.0 1.0 0.00 0.05 0.01 82 1015.9
20260901115839 81 154 0.0 1.0 0.00 0.05 0.01 82 1015.9
20260901115310 81 154 0.0 2.0 0.00 0.05 0.01 82 1015.9
20260901114819 81 154 0.0 2.0 0.00 0.05 0.01 82 1015.8
20260901114328 81 84 0.0 2.0 0.00 0.05 0.01 82 1015.8
20260901113837 81 84 0.0 1.0 0.00 0.05 0.01 82 1015.7
20260901113324 81 84 0.0 2.0 0.00 0.05 0.01 82 1015.8
20260901112813 81 84 0.0 2.0 0.00 0.05 0.01 82 1015.6
20260901112321 81 84 0.0 0.0 0.00 0.05 0.01 81 1015.5
20260901111810 81 84 0.0 0.0 0.00 0.05 0.01 81 1015.5
20260901111319 81 84 0.0 2.0 0.00 0.05 0.01 81 1015.3
20260901110811 81 84 0.0 3.0 0.00 0.05 0.01 82 1015.2
20260901110319 81 83 0.0 3.0 0.00 0.05 0.01 82 1015.1
20260901105827 81 82 1.0 2.0 0.00 0.05 0.01 82 1015.1
20260901105316 81 77 0.0 1.0 0.00 0.05 0.01 82 1015.0
20260901104825 81 77 0.0 3.0 0.00 0.05 0.01 81 1015.1
20260901104313 81 77 1.0 3.0 0.00 0.05 0.01 81 1015.1
20260901103822 81 138 0.0 0.0 0.00 0.05 0.01 81 1015.1
20260901103311 81 138 0.0 2.0 0.00 0.05 0.01 81 1015.1
20260901102820 81 138 0.0 2.0 0.00 0.05 0.01 81 1015.0
20260901102313 81 138 0.0 1.0 0.00 0.05 0.01 81 1014.9
20260901101822 81 129 0.0 1.0 0.00 0.05 0.01 81 1014.9
20260901101311 81 129 0.0 2.0 0.00 0.05 0.01 81 1014.9
20260901100819 81 129 0.0 4.0 0.00 0.05 0.01 81 1014.9
20260901100347 81 129 1.0 4.0 0.00 0.05 0.01 81 1014.8
20260901095815 81 74 0.0 1.0 0.00 0.05 0.01 81 1014.8
20260901095324 81 74 0.0 0.0 0.00 0.05 0.01 81 1014.9
20260901094812 81 74 0.0 0.0 0.00 0.05 0.01 81 1015.0
20260901094320 81 74 0.0 0.0 0.00 0.05 0.01 81 1015.0
20260901093808 81 74 0.0 0.0 0.00 0.05 0.01 81 1015.0
20260901093322 81 74 0.0 0.0 0.00 0.05 0.01 81 1014.9
20260901092810 81 74 0.0 0.0 0.00 0.05 0.01 81 1014.9
20260901092319 81 74 0.0 0.0 0.00 0.05 0.01 81 1015.0
20260901091828 81 74 0.0 0.0 0.00 0.05 0.01 81 1015.1
20260901091316 81 74 0.0 0.0 0.00 0.05 0.01 81 1015.0
20260901090825 81 74 0.0 0.0 0.00 0.05 0.01 81 1015.0
20260901090334 81 74 0.0 0.0 0.00 0.05 0.01 81 1015.1
20260901085842 81 74 0.0 0.0 0.00 0.05 0.01 81 1015.1
20260901085309 81 92 0.0 0.0 0.01 0.05 0.01 81 1015.0
20260901084818 81 92 0.0 0.0 0.01 0.05 0.01 81 1015.0
20260901084310 81 147 0.0 0.0 0.01 0.05 0.01 80 1015.0
20260901083818 81 147 0.0 0.0 0.01 0.05 0.01 80 1015.0
20260901083327 82 147 0.0 0.0 0.01 0.05 0.01 80 1015.0
20260901082815 82 147 0.0 0.0 0.01 0.05 0.01 80 1014.9
20260901082324 82 147 0.0 0.0 0.01 0.05 0.01 80 1014.8
20260901081813 82 147 0.0 2.0 0.01 0.05 0.01 80 1014.9
20260901081321 82 133 0.0 2.0 0.01 0.05 0.01 80 1014.9
20260901080810 82 132 0.0 0.0 0.01 0.05 0.01 80 1014.9
20260901080319 82 132 0.0 0.0 0.01 0.05 0.01 80 1014.9
20260901075848 82 132 0.0 0.0 0.01 0.05 0.01 80 1015.0
20260901075319 82 132 0.0 0.0 0.00 0.04 0.00 80 1015.0
20260901074849 82 132 0.0 2.0 0.00 0.04 0.00 80 1015.0
20260901074316 82 132 0.0 3.0 0.00 0.04 0.00 80 1015.1
20260901073826 82 132 0.0 3.0 0.00 0.04 0.00 80 1015.2
20260901073314 82 131 0.0 2.0 0.00 0.04 0.00 80 1015.2
20260901072821 82 131 0.0 2.0 0.00 0.04 0.00 80 1015.3
20260901072310 82 131 0.0 3.0 0.00 0.04 0.00 79 1015.3
20260901071819 82 131 0.0 3.0 0.00 0.04 0.04 79 1015.3
20260901071328 82 140 0.0 3.0 0.00 0.04 0.04 79 1015.3
20260901070816 82 140 0.0 3.0 0.00 0.04 0.04 79 1015.4
20260901070329 82 138 0.0 2.0 0.00 0.04 0.04 79 1015.4
20260901065817 82 138 0.0 4.0 0.00 0.04 0.04 79 1015.4
20260901065325 82 138 1.0 4.0 0.00 0.04 0.04 79 1015.5
20260901064814 82 115 0.0 3.0 0.00 0.04 0.04 79 1015.5
20260901064324 82 134 1.0 3.0 0.00 0.04 0.04 79 1015.7
20260901063813 82 120 0.0 2.0 0.00 0.04 0.04 79 1015.7
20260901063321 82 109 0.0 4.0 0.00 0.04 0.04 79 1015.6
20260901062850 82 153 0.0 4.0 0.00 0.04 0.04 79 1015.7
20260901062317 82 82 0.0 5.0 0.00 0.04 0.04 79 1015.5
20260901061810 82 120 0.0 3.0 0.00 0.04 0.04 79 1015.5
20260901061318 82 86 0.0 5.0 0.00 0.04 0.04 79 1015.6
20260901060847 82 51 1.0 5.0 0.00 0.04 0.04 78 1015.6
20260901060320 82 127 1.0 3.0 0.00 0.04 0.04 78 1015.6
20260901055836 82 161 2.0 5.0 0.00 0.04 0.04 78 1015.6
20260901055312 82 101 0.0 5.0 0.00 0.04 0.04 78 1015.5
20260901054827 82 90 1.0 4.0 0.00 0.04 0.04 78 1015.5
20260901054322 82 134 0.0 5.0 0.00 0.04 0.04 78 1015.5
20260901053818 82 165 1.0 5.0 0.00 0.04 0.04 78 1015.5
20260901053335 82 141 1.0 5.0 0.00 0.04 0.04 78 1015.5
20260901052831 82 150 0.0 4.0 0.00 0.04 0.04 78 1015.5
20260901052326 82 137 1.0 4.0 0.00 0.04 0.04 78 1015.5
20260901051822 83 167 0.0 2.0 0.00 0.05 0.04 78 1015.6
20260901051318 83 168 0.0 3.0 0.00 0.05 0.04 78 1015.6
20260901050833 83 162 0.0 3.0 0.00 0.05 0.04 78 1015.7
20260901050330 83 161 1.0 3.0 0.00 0.05 0.04 78 1015.8
20260901045817 83 163 1.0 5.0 0.00 0.05 0.04 77 1016.0
20260901045313 83 153 2.0 5.0 0.00 0.05 0.04 77 1016.0
20260901044809 83 125 0.0 3.0 0.00 0.05 0.04 77 1016.0
20260901044324 83 151 1.0 3.0 0.00 0.05 0.04 78 1016.0
20260901043813 83 163 0.0 3.0 0.00 0.05 0.04 78 1015.9
20260901043329 83 163 0.0 3.0 0.00 0.05 0.04 78 1015.8
20260901042824 83 168 0.0 2.0 0.00 0.05 0.04 78 1015.8
20260901042333 83 92 0.0 3.0 0.00 0.05 0.04 78 1015.8
20260901041311 83 172 0.0 3.0 0.00 0.05 0.04 78 1015.7
20260901040828 83 149 1.0 3.0 0.00 0.05 0.04 78 1015.8
20260901040324 83 161 1.0 5.0 0.00 0.05 0.04 77 1015.8
20260901035820 83 148 1.0 5.0 0.00 0.05 0.04 77 1015.8
20260901035317 83 179 1.0 4.0 0.00 0.05 0.04 77 1015.8
20260901034813 83 157 0.0 5.0 0.00 0.05 0.04 77 1015.8
20260901034309 83 74 0.0 3.0 0.00 0.05 0.04 77 1015.9
20260901033826 83 72 0.0 4.0 0.00 0.05 0.04 77 1015.8
20260901033322 83 67 1.0 4.0 0.01 0.05 0.04 77 1015.7
20260901032819 83 171 0.0 2.0 0.01 0.05 0.04 76 1015.7
20260901032329 83 159 0.0 2.0 0.01 0.05 0.04 76 1015.6
20260901031845 83 148 0.0 6.0 0.01 0.05 0.04 76 1015.6
20260901031320 83 102 1.0 6.0 0.01 0.05 0.04 76 1015.6
20260901030817 83 119 1.0 6.0 0.01 0.05 0.04 76 1015.4
20260901030333 83 137 2.0 5.0 0.01 0.05 0.04 76 1015.3
20260901025849 83 87 1.0 7.0 0.01 0.05 0.04 76 1015.3
20260901025326 83 139 0.0 7.0 0.01 0.05 0.04 76 1015.3
20260901024820 83 79 2.0 7.0 0.01 0.05 0.04 76 1015.3
20260901024316 83 118 1.0 4.0 0.01 0.05 0.04 76 1015.4
20260901023811 83 122 1.0 5.0 0.01 0.05 0.04 76 1015.4
20260901023326 83 85 1.0 5.0 0.00 0.04 0.03 76 1015.3
20260901022824 83 128 1.0 3.0 0.00 0.04 0.03 76 1015.2
20260901022320 83 166 1.0 3.0 0.00 0.04 0.03 76 1015.2
20260901021836 83 153 0.0 3.0 0.00 0.04 0.03 75 1015.2
20260901021311 83 153 0.0 5.0 0.00 0.04 0.03 75 1015.3
20260901020823 83 126 1.0 5.0 0.00 0.04 0.03 75 1015.3
20260901020318 83 80 0.0 5.0 0.00 0.04 0.03 75 1015.2
20260901015833 83 90 0.0 5.0 0.00 0.04 0.03 75 1015.2
20260901015349 84 84 1.0 5.0 0.00 0.04 0.03 75 1015.2
20260901014824 84 89 1.0 3.0 0.00 0.04 0.03 75 1015.2
20260901014319 84 90 0.0 4.0 0.00 0.04 0.03 74 1015.1
20260901013816 84 95 1.0 5.0 0.00 0.04 0.03 74 1015.0
20260901013311 84 85 2.0 5.0 0.00 0.04 0.03 74 1014.9
20260901012827 84 91 1.0 6.0 0.00 0.04 0.03 73 1014.8
20260901012324 84 65 2.0 8.0 0.00 0.04 0.03 73 1014.7
20260901011817 84 15 2.0 8.0 0.00 0.04 0.03 73 1014.6
20260901011313 84 202 2.0 7.0 0.00 0.04 0.03 72 1014.6
20260901010828 84 90 2.0 7.0 0.00 0.04 0.03 72 1014.6
20260901010324 84 87 1.0 6.0 0.00 0.04 0.03 72 1014.5
20260901005822 84 83 0.0 8.0 0.00 0.04 0.03 72 1014.5
20260901005318 84 107 1.0 5.0 0.00 0.04 0.03 72 1014.5
20260901004813 85 144 1.0 3.0 0.00 0.04 0.03 71 1014.4
20260901004328 85 120 1.0 4.0 0.00 0.04 0.03 71 1014.4
20260901003824 85 127 0.0 6.0 0.00 0.04 0.03 70 1014.4
20260901003320 85 98 1.0 6.0 0.00 0.04 0.03 70 1014.5
20260901002817 85 160 2.0 5.0 0.00 0.04 0.03 69 1014.4
20260901002333 85 158 2.0 8.0 0.00 0.04 0.03 69 1014.4
20260901001846 85 173 2.0 8.0 0.00 0.04 0.03 69 1014.5
20260901001323 86 229 2.0 5.0 0.00 0.04 0.03 69 1014.5
20260901000839 86 161 1.0 5.0 0.00 0.04 0.03 69 1014.6
20260901000336 86 125 1.0 7.0 0.00 0.04 0.03 68 1014.5
20260831235832 86 107 2.0 7.0 0.00 0.04 0.03 68 1014.5
20260831235346 86 103 2.0 11.0 0.00 0.04 0.03 68 1014.6
20260831234822 86 84 3.0 11.0 0.00 0.04 0.03 67 1014.6
20260831234317 86 78 1.0 5.0 0.00 0.04 0.03 67 1014.7
20260831233814 87 65 2.0 9.0 0.00 0.04 0.03 66 1014.8
20260831233330 87 49 2.0 9.0 0.00 0.04 0.03 66 1014.8
20260831232310 87 123 3.0 9.0 0.00 0.04 0.03 65 1014.9
20260831231854 87 99 2.0 9.0 0.00 0.05 0.03 65 1014.8
20260831231349 87 105 2.0 9.0 0.00 0.05 0.03 66 1014.9
20260831230825 88 121 0.0 5.0 0.00 0.05 0.03 64 1014.9
20260831230320 88 155 2.0 5.0 0.00 0.05 0.03 63 1015.0
20260831225839 88 101 1.0 8.0 0.00 0.05 0.03 63 1015.0
20260831225313 88 28 4.0 8.0 0.00 0.05 0.03 63 1015.0
20260831224810 88 148 1.0 8.0 0.00 0.05 0.03 65 1015.1
20260831224324 88 161 327.0 327.0 0.00 0.00 0.03 65 1015.1
20260831223817 88 92 2.0 10.0 0.00 0.05 0.03 65 1015.1
20260831223313 88 61 3.0 8.0 0.00 0.05 0.03 65 1015.2
20260831222809 88 71 2.0 10.0 0.00 0.05 0.03 66 1015.1
20260831222326 88 111 3.0 10.0 0.01 0.05 0.03 64 1015.1
20260831221824 88 130 3.0 9.0 0.01 0.05 0.03 64 1015.1
20260831221319 88 86 2.0 8.0 0.01 0.05 0.03 64 1015.1
20260831220836 89 89 1.0 7.0 0.01 0.05 0.03 63 1015.1
20260831220309 88 84 2.0 8.0 0.01 0.05 0.03 63 1015.1
20260831215825 88 49 4.0 8.0 0.01 0.05 0.03 62 1015.0
20260831215320 89 71 4.0 8.0 0.01 0.05 0.03 63 1015.1
20260831214831 88 74 2.0 5.0 0.01 0.05 0.03 63 1015.1
20260831214345 88 121 1.0 9.0 0.01 0.05 0.03 64 1015.0
20260831213820 88 104 4.0 9.0 0.01 0.05 0.03 64 1014.9
20260831213317 88 89 3.0 9.0 0.01 0.05 0.03 64 1014.9
20260831212814 88 168 1.0 8.0 0.01 0.05 0.03 64 1014.9
20260831212329 89 73 3.0 10.0 0.00 0.04 0.02 64 1015.0
20260831211825 89 95 2.0 7.0 0.00 0.04 0.02 64 1015.1
20260831211321 89 181 2.0 8.0 0.00 0.04 0.02 65 1015.1
20260831210818 89 107 3.0 8.0 0.00 0.04 0.02 65 1015.1
20260831210314 89 87 2.0 7.0 0.00 0.04 0.02 66 1015.2
20260831205312 88 173 4.0 11.0 0.00 0.04 0.02 66 1015.3
20260831204829 88 78 3.0 13.0 0.00 0.04 0.02 65 1015.2
20260831204319 89 159 5.0 12.0 0.00 0.04 0.02 65 1015.2
20260831203828 89 180 2.0 6.0 0.00 0.04 0.02 66 1015.2
20260831203342 88 68 2.0 10.0 0.00 0.04 0.02 67 1015.2
20260831202818 88 58 1.0 7.0 0.00 0.04 0.02 68 1015.2
20260831202312 88 117 3.0 9.0 0.00 0.04 0.02 68 1015.3
20260831201829 88 192 4.0 9.0 0.00 0.04 0.02 66 1015.4
20260831201325 89 109 4.0 11.0 0.00 0.04 0.02 65 1015.4
20260831200821 89 67 4.0 11.0 0.00 0.04 0.02 65 1015.4
20260831200317 90 80 5.0 8.0 0.00 0.04 0.02 64 1015.5
20260831195835 90 143 2.0 8.0 0.00 0.04 0.02 65 1015.5
20260831195349 89 167 2.0 7.0 0.00 0.04 0.02 65 1015.6
20260831194824 89 65 2.0 6.0 0.00 0.04 0.02 67 1015.6
20260831194321 88 147 2.0 6.0 0.00 0.04 0.02 66 1015.8
20260831193817 88 114 2.0 7.0 0.00 0.04 0.02 67 1015.8
20260831193334 88 155 2.0 7.0 0.00 0.04 0.02 68 1015.9
20260831192850 88 130 2.0 9.0 0.00 0.04 0.02 67 1015.9
20260831192322 88 169 2.0 5.0 0.00 0.04 0.02 67 1015.9
20260831191839 88 130 2.0 7.0 0.00 0.04 0.02 68 1015.9
20260831191334 88 148 3.0 7.0 0.00 0.04 0.02 68 1015.9
20260831190845 88 127 3.0 7.0 0.00 0.04 0.02 67 1015.9
20260831190320 88 157 2.0 7.0 0.00 0.04 0.02 68 1016.0